| time (UTC) | temp F | wind direction | speed knots | gust knots | rain 1hr in | rain 24hr in | rain mn in | humidity % | barometer mb |
| 20260906165508 | 82 | 67 | 0.0 | 1.7 | 0.00 | 0.00 | 0.00 | 43 | 1023.9 |
| 20260906165012 | 82 | 74 | 0.0 | 2.6 | 0.00 | 0.00 | 0.00 | 43 | 1024.0 |
| 20260906164507 | 82 | 70 | 0.0 | 2.6 | 0.00 | 0.00 | 0.00 | 43 | 1023.9 |
| 20260906164007 | 83 | 89 | 0.0 | 0.0 | 0.00 | 0.00 | 0.00 | 42 | 1023.8 |
| 20260906163507 | 83 | 89 | 0.0 | 1.7 | 0.00 | 0.00 | 0.00 | 42 | 1023.8 |
| 20260906163018 | 83 | 90 | 0.0 | 2.6 | 0.00 | 0.00 | 0.00 | 41 | 1023.8 |
| 20260906162509 | 83 | 123 | 0.0 | 6.1 | 0.00 | 0.00 | 0.00 | 42 | 1023.7 |
| 20260906162006 | 83 | 132 | 0.0 | 6.1 | 0.00 | 0.00 | 0.00 | 42 | 1023.8 |
| 20260906161506 | 83 | 175 | 0.0 | 2.6 | 0.00 | 0.00 | 0.00 | 41 | 1023.9 |
| 20260906161005 | 83 | 175 | 0.9 | 3.5 | 0.00 | 0.00 | 0.00 | 42 | 1023.8 |
| 20260906160505 | 83 | 108 | 0.0 | 4.3 | 0.00 | 0.00 | 0.00 | 41 | 1023.8 |
| 20260906160006 | 83 | 144 | 0.9 | 4.3 | 0.00 | 0.00 | 0.00 | 42 | 1023.8 |
| 20260906155505 | 83 | 168 | 0.0 | 2.6 | 0.00 | 0.00 | 0.00 | 42 | 1023.9 |
| 20260906155004 | 83 | 168 | 0.0 | 3.5 | 0.00 | 0.00 | 0.00 | 42 | 1024.0 |
| 20260906154510 | 83 | 136 | 0.0 | 4.3 | 0.00 | 0.00 | 0.00 | 42 | 1024.0 |
| 20260906154005 | 83 | 141 | 0.9 | 4.3 | 0.00 | 0.00 | 0.00 | 42 | 1024.0 |
| 20260906153506 | 83 | 22 | 0.0 | 4.3 | 0.00 | 0.00 | 0.00 | 42 | 1024.0 |
| 20260906153007 | 83 | 146 | 0.0 | 2.6 | 0.00 | 0.00 | 0.00 | 43 | 1023.9 |
| 20260906152503 | 83 | 90 | 0.0 | 3.5 | 0.00 | 0.00 | 0.00 | 42 | 1024.0 |
| 20260906152006 | 83 | 89 | 0.0 | 3.5 | 0.00 | 0.00 | 0.00 | 43 | 1024.0 |
| 20260906151502 | 83 | 130 | 0.0 | 2.6 | 0.00 | 0.00 | 0.00 | 42 | 1024.0 |
| 20260906151002 | 83 | 130 | 0.9 | 2.6 | 0.00 | 0.00 | 0.00 | 42 | 1024.1 |
| 20260906150503 | 83 | 127 | 0.0 | 4.3 | 0.00 | 0.00 | 0.00 | 43 | 1024.2 |
| 20260906150005 | 83 | 134 | 1.7 | 4.3 | 0.00 | 0.00 | 0.00 | 42 | 1024.2 |
| 20260906145502 | 83 | 51 | 0.0 | 4.3 | 0.00 | 0.00 | 0.00 | 43 | 1024.3 |
| 20260906145002 | 83 | 50 | 0.9 | 4.3 | 0.00 | 0.00 | 0.00 | 43 | 1024.3 |
| 20260906144501 | 83 | 306 | 0.9 | 6.1 | 0.00 | 0.00 | 0.00 | 43 | 1024.3 |
| 20260906144000 | 83 | 137 | 1.7 | 6.1 | 0.00 | 0.00 | 0.00 | 43 | 1024.3 |
| 20260906143600 | 83 | 123 | 0.0 | 6.1 | 0.00 | 0.00 | 0.00 | 43 | 1024.3 |
| 20260906143103 | 84 | 96 | 0.0 | 3.5 | 0.00 | 0.00 | 0.00 | 43 | 1024.4 |
| 20260906142559 | 84 | 61 | 0.9 | 4.3 | 0.00 | 0.00 | 0.00 | 43 | 1024.5 |
| 20260906142059 | 84 | 116 | 1.7 | 4.3 | 0.00 | 0.00 | 0.00 | 42 | 1024.5 |
| 20260906141613 | 84 | 111 | 0.0 | 6.1 | 0.00 | 0.00 | 0.00 | 44 | 1024.5 |
| 20260906141102 | 84 | 145 | 0.0 | 6.1 | 0.00 | 0.00 | 0.00 | 43 | 1024.6 |
| 20260906140602 | 84 | 34 | 0.0 | 4.3 | 0.00 | 0.00 | 0.00 | 43 | 1024.6 |
| 20260906140107 | 84 | 80 | 1.7 | 4.3 | 0.00 | 0.00 | 0.00 | 42 | 1024.7 |
| 20260906135600 | 84 | 298 | 0.9 | 6.1 | 0.00 | 0.00 | 0.00 | 43 | 1024.7 |
| 20260906135057 | 84 | 26 | 0.0 | 6.1 | 0.00 | 0.00 | 0.00 | 43 | 1024.6 |
| 20260906134600 | 84 | 142 | 0.9 | 5.2 | 0.00 | 0.00 | 0.00 | 43 | 1024.7 |
| 20260906134056 | 84 | 44 | 0.9 | 7.0 | 0.00 | 0.00 | 0.00 | 42 | 1024.7 |
| 20260906133556 | 84 | 136 | 0.9 | 7.0 | 0.00 | 0.00 | 0.00 | 43 | 1024.9 |
| 20260906133055 | 84 | 76 | 0.9 | 5.2 | 0.00 | 0.00 | 0.00 | 42 | 1024.8 |
| 20260906132557 | 84 | 136 | 0.9 | 6.1 | 0.00 | 0.00 | 0.00 | 42 | 1025.0 |
| 20260906132053 | 83 | 166 | 0.9 | 6.1 | 0.00 | 0.00 | 0.00 | 43 | 1025.0 |
| 20260906131553 | 84 | 121 | 1.7 | 6.1 | 0.00 | 0.00 | 0.00 | 43 | 1025.2 |
| 20260906131051 | 84 | 76 | 0.9 | 4.3 | 0.00 | 0.00 | 0.00 | 44 | 1025.1 |
| 20260906130554 | 84 | 45 | 0.9 | 6.1 | 0.00 | 0.00 | 0.00 | 44 | 1025.1 |
| 20260906130053 | 84 | 127 | 2.6 | 6.1 | 0.00 | 0.00 | 0.00 | 43 | 1025.3 |
| 20260906125552 | 83 | 326 | 0.9 | 2.6 | 0.00 | 0.00 | 0.00 | 46 | 1025.3 |
| 20260906125053 | 83 | 336 | 0.0 | 4.3 | 0.00 | 0.00 | 0.00 | 44 | 1025.4 |
| 20260906124550 | 83 | 71 | 0.0 | 4.3 | 0.00 | 0.00 | 0.00 | 45 | 1025.5 |
| 20260906124049 | 83 | 139 | 0.9 | 7.0 | 0.00 | 0.00 | 0.00 | 44 | 1025.6 |
| 20260906123550 | 83 | 141 | 2.6 | 7.0 | 0.00 | 0.00 | 0.00 | 44 | 1025.7 |
| 20260906123047 | 83 | 35 | 0.0 | 1.7 | 0.00 | 0.00 | 0.00 | 45 | 1025.7 |
| 20260906122548 | 83 | 76 | 0.0 | 6.1 | 0.00 | 0.00 | 0.00 | 45 | 1025.7 |
| 20260906122047 | 83 | 315 | 0.9 | 6.1 | 0.00 | 0.00 | 0.00 | 44 | 1025.9 |
| 20260906121546 | 84 | 128 | 1.7 | 4.3 | 0.00 | 0.00 | 0.00 | 43 | 1025.9 |
| 20260906121046 | 84 | 136 | 1.7 | 3.5 | 0.00 | 0.00 | 0.00 | 44 | 1025.9 |
| 20260906120544 | 83 | 87 | 0.0 | 2.6 | 0.00 | 0.00 | 0.00 | 44 | 1026.0 |
| 20260906120049 | 83 | 42 | 0.9 | 7.0 | 0.00 | 0.00 | 0.00 | 43 | 1026.0 |
| 20260906115543 | 82 | 69 | 1.7 | 7.0 | 0.00 | 0.00 | 0.00 | 44 | 1026.0 |
| 20260906115043 | 81 | 29 | 1.7 | 5.2 | 0.00 | 0.00 | 0.00 | 44 | 1026.2 |
| 20260906114543 | 81 | 302 | 0.9 | 3.5 | 0.00 | 0.00 | 0.00 | 44 | 1026.2 |
| 20260906114041 | 82 | 30 | 0.0 | 4.3 | 0.00 | 0.00 | 0.00 | 45 | 1026.2 |
| 20260906113540 | 81 | 68 | 0.9 | 4.3 | 0.00 | 0.00 | 0.00 | 45 | 1026.4 |
| 20260906113040 | 81 | 153 | 0.9 | 2.6 | 0.00 | 0.00 | 0.00 | 45 | 1026.3 |
| 20260906112539 | 81 | 355 | 0.9 | 4.3 | 0.00 | 0.00 | 0.00 | 45 | 1026.4 |
| 20260906112039 | 81 | 5 | 1.7 | 4.3 | 0.00 | 0.00 | 0.00 | 45 | 1026.4 |
| 20260906111542 | 81 | 52 | 0.0 | 4.3 | 0.00 | 0.00 | 0.00 | 44 | 1026.5 |
| 20260906111036 | 80 | 165 | 0.0 | 4.3 | 0.00 | 0.00 | 0.00 | 45 | 1026.5 |
| 20260906110536 | 80 | 74 | 0.9 | 7.0 | 0.00 | 0.00 | 0.00 | 46 | 1026.6 |
| 20260906110041 | 80 | 317 | 0.9 | 7.0 | 0.00 | 0.00 | 0.00 | 46 | 1026.6 |
| 20260906105533 | 80 | 119 | 1.7 | 5.2 | 0.00 | 0.00 | 0.00 | 46 | 1026.7 |
| 20260906105032 | 79 | 338 | 0.9 | 4.3 | 0.00 | 0.00 | 0.00 | 47 | 1026.7 |
| 20260906104531 | 79 | 64 | 0.9 | 5.2 | 0.00 | 0.00 | 0.00 | 47 | 1026.7 |
| 20260906104030 | 79 | 47 | 0.9 | 5.2 | 0.00 | 0.00 | 0.00 | 47 | 1026.8 |
| 20260906103529 | 79 | 71 | 0.0 | 3.5 | 0.00 | 0.00 | 0.00 | 48 | 1026.8 |
| 20260906103028 | 78 | 128 | 1.7 | 4.3 | 0.00 | 0.00 | 0.00 | 47 | 1026.8 |
| 20260906102527 | 78 | 70 | 0.9 | 3.5 | 0.00 | 0.00 | 0.00 | 48 | 1026.9 |
| 20260906102025 | 78 | 88 | 0.9 | 7.0 | 0.00 | 0.00 | 0.00 | 48 | 1026.9 |
| 20260906101524 | 77 | 99 | 3.5 | 7.0 | 0.00 | 0.00 | 0.00 | 47 | 1027.0 |
| 20260906101022 | 77 | 54 | 0.0 | 6.1 | 0.00 | 0.00 | 0.00 | 48 | 1027.1 |
| 20260906100524 | 77 | 111 | 0.9 | 6.1 | 0.00 | 0.00 | 0.00 | 48 | 1027.2 |
| 20260906100019 | 76 | 51 | 0.0 | 6.1 | 0.00 | 0.00 | 0.00 | 50 | 1027.1 |
| 20260906095518 | 76 | 167 | 0.0 | 0.0 | 0.00 | 0.00 | 0.00 | 50 | 1027.3 |
| 20260906095019 | 75 | 165 | 0.0 | 2.6 | 0.00 | 0.00 | 0.00 | 52 | 1027.3 |
| 20260906094527 | 74 | 130 | 0.0 | 2.6 | 0.00 | 0.00 | 0.00 | 52 | 1027.4 |
| 20260906094016 | 74 | 339 | 0.0 | 2.6 | 0.00 | 0.00 | 0.00 | 54 | 1027.5 |
| 20260906093513 | 73 | 319 | 0.0 | 2.6 | 0.00 | 0.00 | 0.00 | 55 | 1027.4 |
| 20260906093014 | 73 | 186 | 0.0 | 0.9 | 0.00 | 0.00 | 0.00 | 57 | 1027.4 |
| 20260906092510 | 73 | 186 | 0.0 | 0.9 | 0.00 | 0.00 | 0.00 | 58 | 1027.4 |
| 20260906092011 | 72 | 186 | 0.0 | 0.9 | 0.00 | 0.00 | 0.00 | 62 | 1027.5 |
| 20260906091623 | 71 | 186 | 0.0 | 0.0 | 0.00 | 0.00 | 0.00 | 62 | 1027.5 |
| 20260906091006 | 71 | 186 | 0.0 | 0.0 | 0.00 | 0.00 | 0.00 | 63 | 1027.6 |
| 20260906090508 | 71 | 186 | 0.0 | 2.6 | 0.00 | 0.00 | 0.00 | 64 | 1027.7 |
| 20260906090003 | 70 | 186 | 0.0 | 2.6 | 0.00 | 0.00 | 0.00 | 65 | 1027.7 |
| 20260906085502 | 69 | 204 | 0.0 | 0.0 | 0.00 | 0.00 | 0.00 | 68 | 1027.7 |
| 20260906085100 | 69 | 197 | 0.0 | 0.0 | 0.00 | 0.00 | 0.00 | 69 | 1027.7 |
| 20260906084559 | 68 | 213 | 0.0 | 0.0 | 0.00 | 0.00 | 0.00 | 71 | 1027.7 |
| 20260906084058 | 67 | 254 | 0.0 | 0.0 | 0.00 | 0.00 | 0.00 | 73 | 1027.8 |
| 20260906083556 | 67 | 252 | 0.0 | 0.0 | 0.00 | 0.00 | 0.00 | 75 | 1027.8 |
| 20260906083055 | 66 | 252 | 0.0 | 0.0 | 0.00 | 0.00 | 0.00 | 77 | 1027.8 |
| 20260906082553 | 65 | 240 | 0.0 | 0.0 | 0.00 | 0.00 | 0.00 | 80 | 1027.9 |
| 20260906082051 | 64 | 240 | 0.0 | 0.0 | 0.00 | 0.00 | 0.00 | 81 | 1027.8 |
| 20260906081554 | 64 | 240 | 0.0 | 0.0 | 0.00 | 0.00 | 0.00 | 83 | 1028.0 |
| 20260906081049 | 63 | 243 | 0.0 | 0.0 | 0.00 | 0.00 | 0.00 | 84 | 1028.2 |
| 20260906080548 | 63 | 299 | 0.0 | 0.0 | 0.00 | 0.00 | 0.00 | 85 | 1028.4 |
| 20260906080052 | 62 | 309 | 0.0 | 0.0 | 0.00 | 0.00 | 0.00 | 86 | 1028.3 |
| 20260906075546 | 62 | 309 | 0.0 | 0.0 | 0.00 | 0.00 | 0.00 | 87 | 1028.3 |
| 20260906075046 | 61 | 309 | 0.0 | 0.0 | 0.00 | 0.00 | 0.00 | 88 | 1028.3 |
| 20260906074545 | 61 | 308 | 0.0 | 0.0 | 0.00 | 0.00 | 0.00 | 89 | 1028.3 |
| 20260906074045 | 60 | 308 | 0.0 | 0.0 | 0.00 | 0.00 | 0.00 | 89 | 1028.2 |
| 20260906073545 | 60 | 307 | 0.0 | 0.0 | 0.00 | 0.00 | 0.00 | 90 | 1028.3 |
| 20260906073044 | 60 | 307 | 0.0 | 0.0 | 0.00 | 0.00 | 0.00 | 90 | 1028.3 |
| 20260906072543 | 59 | 314 | 0.0 | 0.0 | 0.00 | 0.00 | 0.00 | 90 | 1028.3 |
| 20260906072043 | 59 | 313 | 0.0 | 0.0 | 0.00 | 0.00 | 0.00 | 91 | 1028.3 |
| 20260906071542 | 59 | 313 | 0.0 | 0.0 | 0.00 | 0.00 | 0.00 | 91 | 1028.2 |
| 20260906071046 | 59 | 313 | 0.0 | 0.0 | 0.00 | 0.00 | 0.00 | 92 | 1028.3 |
| 20260906070542 | 58 | 315 | 0.0 | 0.0 | 0.00 | 0.00 | 0.00 | 92 | 1028.3 |
| 20260906070042 | 58 | 315 | 0.0 | 0.0 | 0.00 | 0.00 | 0.00 | 92 | 1028.2 |
| 20260906065543 | 57 | 315 | 0.0 | 0.0 | 0.00 | 0.00 | 0.00 | 92 | 1028.2 |
| 20260906065041 | 57 | 315 | 0.0 | 0.0 | 0.00 | 0.00 | 0.00 | 92 | 1028.2 |
| 20260906064541 | 57 | 315 | 0.0 | 0.0 | 0.00 | 0.00 | 0.00 | 92 | 1028.1 |
| 20260906064040 | 57 | 315 | 0.0 | 0.0 | 0.00 | 0.00 | 0.00 | 92 | 1028.1 |
| 20260906063539 | 56 | 315 | 0.0 | 0.0 | 0.00 | 0.00 | 0.00 | 92 | 1028.2 |
| 20260906063039 | 56 | 315 | 0.0 | 0.0 | 0.00 | 0.00 | 0.00 | 92 | 1028.1 |
| 20260906062537 | 56 | 315 | 0.0 | 0.0 | 0.00 | 0.00 | 0.00 | 92 | 1028.2 |
| 20260906062039 | 56 | 315 | 0.0 | 0.0 | 0.00 | 0.00 | 0.00 | 92 | 1028.2 |
| 20260906061539 | 56 | 315 | 0.0 | 0.0 | 0.00 | 0.00 | 0.00 | 92 | 1028.3 |
| 20260906061037 | 55 | 315 | 0.0 | 0.0 | 0.00 | 0.00 | 0.00 | 92 | 1028.4 |
| 20260906060536 | 55 | 315 | 0.0 | 0.0 | 0.00 | 0.00 | 0.00 | 91 | 1028.4 |
| 20260906060034 | 55 | 315 | 0.0 | 0.0 | 0.00 | 0.00 | 0.00 | 91 | 1028.4 |
| 20260906055534 | 55 | 315 | 0.0 | 0.0 | 0.00 | 0.00 | 0.00 | 91 | 1028.4 |
| 20260906055034 | 55 | 315 | 0.0 | 0.0 | 0.00 | 0.00 | 0.00 | 91 | 1028.3 |
| 20260906054534 | 55 | 315 | 0.0 | 0.0 | 0.00 | 0.00 | 0.00 | 91 | 1028.2 |
| 20260906054032 | 55 | 315 | 0.0 | 0.0 | 0.00 | 0.00 | 0.00 | 91 | 1028.2 |
| 20260906053534 | 55 | 315 | 0.0 | 0.0 | 0.00 | 0.00 | 0.00 | 91 | 1028.2 |
| 20260906053031 | 55 | 315 | 0.0 | 0.0 | 0.00 | 0.00 | 0.00 | 91 | 1028.2 |
| 20260906052531 | 55 | 315 | 0.0 | 0.0 | 0.00 | 0.00 | 0.00 | 91 | 1028.1 |
| 20260906052030 | 55 | 315 | 0.0 | 0.0 | 0.00 | 0.00 | 0.00 | 91 | 1028.2 |
| 20260906051529 | 55 | 315 | 0.0 | 0.0 | 0.00 | 0.00 | 0.00 | 91 | 1028.3 |
| 20260906051029 | 55 | 315 | 0.0 | 0.0 | 0.00 | 0.00 | 0.00 | 91 | 1028.2 |
| 20260906050528 | 55 | 315 | 0.0 | 0.0 | 0.00 | 0.00 | 0.00 | 91 | 1028.1 |
| 20260906050028 | 56 | 315 | 0.0 | 0.0 | 0.00 | 0.00 | 0.00 | 91 | 1028.0 |
| 20260906045529 | 56 | 315 | 0.0 | 0.0 | 0.00 | 0.00 | 0.00 | 91 | 1027.9 |
| 20260906045027 | 56 | 315 | 0.0 | 3.5 | 0.00 | 0.00 | 0.00 | 91 | 1027.9 |
| 20260906044533 | 56 | 317 | 0.0 | 3.5 | 0.00 | 0.00 | 0.00 | 91 | 1028.0 |
| 20260906044027 | 56 | 282 | 0.0 | 2.6 | 0.00 | 0.00 | 0.00 | 91 | 1027.9 |
| 20260906043529 | 56 | 291 | 0.0 | 2.6 | 0.00 | 0.00 | 0.00 | 90 | 1027.9 |
| 20260906043026 | 56 | 284 | 0.0 | 0.0 | 0.00 | 0.00 | 0.00 | 90 | 1027.8 |
| 20260906042526 | 56 | 284 | 0.0 | 0.0 | 0.00 | 0.00 | 0.00 | 91 | 1027.7 |
| 20260906042025 | 56 | 286 | 0.0 | 0.0 | 0.00 | 0.00 | 0.00 | 90 | 1027.7 |
| 20260906041524 | 56 | 286 | 0.0 | 0.0 | 0.00 | 0.00 | 0.00 | 90 | 1027.7 |
| 20260906041029 | 56 | 286 | 0.0 | 0.0 | 0.00 | 0.00 | 0.00 | 90 | 1027.7 |
| 20260906040526 | 56 | 286 | 0.0 | 0.0 | 0.00 | 0.00 | 0.00 | 90 | 1027.8 |
| 20260906040030 | 56 | 286 | 0.0 | 0.0 | 0.00 | 0.00 | 0.00 | 90 | 1027.8 |
| 20260906035523 | 56 | 286 | 0.0 | 0.0 | 0.00 | 0.00 | 0.00 | 90 | 1027.7 |
| 20260906035024 | 57 | 286 | 0.0 | 0.0 | 0.00 | 0.00 | 0.00 | 90 | 1027.8 |
| 20260906034523 | 57 | 286 | 0.0 | 0.0 | 0.00 | 0.00 | 0.00 | 90 | 1027.8 |
| 20260906034023 | 57 | 286 | 0.0 | 0.0 | 0.00 | 0.00 | 0.00 | 90 | 1027.8 |
| 20260906033522 | 57 | 286 | 0.0 | 0.0 | 0.00 | 0.00 | 0.00 | 90 | 1027.9 |
| 20260906033022 | 57 | 286 | 0.0 | 0.0 | 0.00 | 0.00 | 0.00 | 90 | 1027.8 |
| 20260906032524 | 57 | 286 | 0.0 | 0.0 | 0.00 | 0.00 | 0.00 | 90 | 1027.8 |
| 20260906032021 | 57 | 286 | 0.0 | 0.0 | 0.00 | 0.00 | 0.00 | 89 | 1028.0 |
| 20260906031534 | 57 | 286 | 0.0 | 0.0 | 0.00 | 0.00 | 0.00 | 89 | 1028.0 |
| 20260906031020 | 57 | 286 | 0.0 | 0.0 | 0.00 | 0.00 | 0.00 | 89 | 1028.0 |
| 20260906030520 | 57 | 286 | 0.0 | 0.0 | 0.00 | 0.00 | 0.00 | 89 | 1028.0 |
| 20260906030020 | 57 | 286 | 0.0 | 0.0 | 0.00 | 0.00 | 0.00 | 89 | 1028.0 |
| 20260906025519 | 57 | 286 | 0.0 | 0.0 | 0.00 | 0.00 | 0.00 | 89 | 1028.0 |
| 20260906025020 | 57 | 286 | 0.0 | 0.0 | 0.00 | 0.00 | 0.00 | 89 | 1028.0 |
| 20260906024519 | 58 | 286 | 0.0 | 0.0 | 0.00 | 0.00 | 0.00 | 89 | 1028.0 |
| 20260906024019 | 58 | 286 | 0.0 | 0.0 | 0.00 | 0.00 | 0.00 | 89 | 1027.9 |
| 20260906023516 | 58 | 286 | 0.0 | 0.0 | 0.00 | 0.00 | 0.00 | 89 | 1027.9 |
| 20260906023019 | 58 | 286 | 0.0 | 0.0 | 0.00 | 0.00 | 0.00 | 89 | 1028.0 |
| 20260906022515 | 58 | 286 | 0.0 | 0.0 | 0.00 | 0.00 | 0.00 | 88 | 1027.9 |
| 20260906022015 | 58 | 286 | 0.0 | 0.0 | 0.00 | 0.00 | 0.00 | 88 | 1027.9 |
| 20260906021515 | 58 | 286 | 0.0 | 0.0 | 0.00 | 0.00 | 0.00 | 88 | 1027.8 |
| 20260906021014 | 58 | 286 | 0.0 | 0.0 | 0.00 | 0.00 | 0.00 | 88 | 1027.9 |
| 20260906020514 | 58 | 286 | 0.0 | 0.0 | 0.00 | 0.00 | 0.00 | 88 | 1027.9 |
| 20260906020013 | 59 | 286 | 0.0 | 0.0 | 0.00 | 0.00 | 0.00 | 88 | 1027.8 |
| 20260906015515 | 59 | 286 | 0.0 | 0.0 | 0.00 | 0.00 | 0.00 | 88 | 1027.7 |
| 20260906015012 | 59 | 286 | 0.0 | 0.0 | 0.00 | 0.00 | 0.00 | 88 | 1027.7 |
| 20260906014513 | 59 | 286 | 0.0 | 0.0 | 0.00 | 0.00 | 0.00 | 88 | 1027.7 |
| 20260906014015 | 59 | 286 | 0.0 | 0.0 | 0.00 | 0.00 | 0.00 | 88 | 1027.7 |
| 20260906013511 | 59 | 286 | 0.0 | 0.0 | 0.00 | 0.00 | 0.00 | 88 | 1027.7 |
| 20260906013011 | 59 | 286 | 0.0 | 0.0 | 0.00 | 0.00 | 0.00 | 88 | 1027.5 |
| 20260906012509 | 59 | 286 | 0.0 | 0.0 | 0.00 | 0.00 | 0.00 | 88 | 1027.6 |
| 20260906012009 | 59 | 286 | 0.0 | 0.0 | 0.00 | 0.00 | 0.00 | 88 | 1027.5 |
| 20260906011513 | 59 | 286 | 0.0 | 0.0 | 0.00 | 0.00 | 0.00 | 88 | 1027.5 |
| 20260906011015 | 59 | 286 | 0.0 | 0.0 | 0.00 | 0.00 | 0.00 | 88 | 1027.5 |
| 20260906010510 | 60 | 286 | 0.0 | 0.0 | 0.00 | 0.00 | 0.00 | 88 | 1027.5 |
| 20260906010008 | 60 | 286 | 0.0 | 0.9 | 0.00 | 0.00 | 0.00 | 88 | 1027.5 |
| 20260906005508 | 60 | 286 | 0.0 | 0.9 | 0.00 | 0.00 | 0.00 | 88 | 1027.5 |
| 20260906005008 | 60 | 261 | 0.0 | 0.0 | 0.00 | 0.00 | 0.00 | 88 | 1027.5 |
| 20260906004508 | 60 | 256 | 0.0 | 0.0 | 0.00 | 0.00 | 0.00 | 88 | 1027.5 |
| 20260906004007 | 60 | 256 | 0.0 | 0.0 | 0.00 | 0.00 | 0.00 | 88 | 1027.6 |
| 20260906003507 | 60 | 256 | 0.0 | 0.0 | 0.00 | 0.00 | 0.00 | 88 | 1027.6 |
| 20260906003011 | 60 | 256 | 0.0 | 0.0 | 0.00 | 0.00 | 0.00 | 87 | 1027.6 |
| 20260906002505 | 60 | 302 | 0.0 | 0.0 | 0.00 | 0.00 | 0.00 | 87 | 1027.6 |
| 20260906002005 | 60 | 300 | 0.0 | 0.0 | 0.00 | 0.00 | 0.00 | 87 | 1027.7 |
| 20260906001505 | 60 | 309 | 0.0 | 0.0 | 0.00 | 0.00 | 0.00 | 87 | 1027.7 |
| 20260906001004 | 60 | 309 | 0.0 | 0.9 | 0.00 | 0.00 | 0.00 | 87 | 1027.7 |
| 20260906000504 | 61 | 301 | 0.0 | 0.0 | 0.00 | 0.00 | 0.00 | 87 | 1027.7 |
| 20260906000004 | 61 | 301 | 0.0 | 1.7 | 0.00 | 0.00 | 0.00 | 87 | 1027.7 |
| 20260905235502 | 61 | 300 | 0.0 | 1.7 | 0.00 | 0.00 | 0.00 | 87 | 1027.6 |
| 20260905235003 | 61 | 308 | 0.0 | 0.0 | 0.00 | 0.00 | 0.00 | 87 | 1027.7 |
| 20260905234507 | 61 | 307 | 0.0 | 0.0 | 0.00 | 0.00 | 0.00 | 87 | 1027.8 |
| 20260905234001 | 61 | 307 | 0.0 | 0.0 | 0.00 | 0.00 | 0.00 | 87 | 1027.8 |
| 20260905233501 | 61 | 304 | 0.0 | 3.5 | 0.00 | 0.00 | 0.00 | 87 | 1027.8 |
| 20260905233002 | 61 | 309 | 0.0 | 3.5 | 0.00 | 0.00 | 0.00 | 87 | 1027.8 |
| 20260905232600 | 61 | 306 | 0.0 | 2.6 | 0.00 | 0.00 | 0.00 | 87 | 1027.8 |
| 20260905232101 | 61 | 305 | 0.0 | 0.0 | 0.00 | 0.00 | 0.00 | 87 | 1027.7 |
| 20260905231600 | 62 | 305 | 0.0 | 0.0 | 0.00 | 0.00 | 0.00 | 87 | 1027.7 |
| 20260905231100 | 62 | 305 | 0.0 | 0.9 | 0.00 | 0.00 | 0.00 | 87 | 1027.7 |
| 20260905230559 | 62 | 305 | 0.0 | 0.9 | 0.00 | 0.00 | 0.00 | 87 | 1027.8 |
| 20260905230059 | 62 | 258 | 0.0 | 0.0 | 0.00 | 0.00 | 0.00 | 87 | 1027.8 |
| 20260905225559 | 62 | 250 | 0.0 | 0.0 | 0.00 | 0.00 | 0.00 | 87 | 1027.8 |
| 20260905225058 | 62 | 248 | 0.0 | 0.0 | 0.00 | 0.00 | 0.00 | 87 | 1027.8 |
| 20260905224607 | 62 | 311 | 0.0 | 0.0 | 0.00 | 0.00 | 0.00 | 87 | 1027.8 |
| 20260905224057 | 62 | 319 | 0.0 | 3.5 | 0.00 | 0.00 | 0.00 | 87 | 1027.8 |
| 20260905223558 | 62 | 319 | 0.0 | 4.3 | 0.00 | 0.00 | 0.00 | 87 | 1027.8 |
| 20260905223057 | 62 | 313 | 0.0 | 4.3 | 0.00 | 0.00 | 0.00 | 87 | 1027.7 |
| 20260905222556 | 62 | 311 | 0.9 | 4.3 | 0.00 | 0.00 | 0.00 | 87 | 1027.7 |
| 20260905222055 | 62 | 315 | 0.0 | 4.3 | 0.00 | 0.00 | 0.00 | 87 | 1027.7 |
| 20260905221559 | 62 | 325 | 0.9 | 4.3 | 0.00 | 0.00 | 0.00 | 87 | 1027.6 |
| 20260905221054 | 62 | 316 | 0.9 | 4.3 | 0.00 | 0.00 | 0.00 | 87 | 1027.6 |
| 20260905220553 | 63 | 316 | 0.0 | 0.0 | 0.00 | 0.00 | 0.00 | 86 | 1027.6 |
| 20260905220100 | 63 | 315 | 0.0 | 3.5 | 0.00 | 0.00 | 0.00 | 86 | 1027.6 |
| 20260905215552 | 63 | 317 | 0.0 | 4.3 | 0.00 | 0.00 | 0.00 | 86 | 1027.6 |
| 20260905215051 | 63 | 317 | 1.7 | 4.3 | 0.00 | 0.00 | 0.00 | 86 | 1027.6 |
| 20260905214551 | 63 | 319 | 0.0 | 3.5 | 0.00 | 0.00 | 0.00 | 86 | 1027.6 |
| 20260905214051 | 63 | 317 | 0.0 | 2.6 | 0.00 | 0.00 | 0.00 | 86 | 1027.6 |
| 20260905213550 | 63 | 302 | 0.0 | 0.0 | 0.00 | 0.00 | 0.00 | 86 | 1027.7 |
| 20260905213050 | 63 | 250 | 0.0 | 0.0 | 0.00 | 0.00 | 0.00 | 86 | 1027.6 |
| 20260905212549 | 64 | 252 | 0.0 | 0.0 | 0.00 | 0.00 | 0.00 | 86 | 1027.7 |
| 20260905212047 | 64 | 240 | 0.0 | 0.9 | 0.00 | 0.00 | 0.00 | 86 | 1027.5 |
| 20260905211549 | 64 | 292 | 0.0 | 4.3 | 0.00 | 0.00 | 0.00 | 85 | 1027.5 |
| 20260905211047 | 64 | 318 | 0.9 | 4.3 | 0.00 | 0.00 | 0.00 | 85 | 1027.5 |
| 20260905210546 | 64 | 317 | 0.0 | 0.9 | 0.00 | 0.00 | 0.00 | 85 | 1027.4 |
| 20260905210104 | 65 | 325 | 0.0 | 2.6 | 0.00 | 0.00 | 0.00 | 85 | 1027.4 |
| 20260905205546 | 65 | 315 | 0.0 | 4.3 | 0.00 | 0.00 | 0.00 | 84 | 1027.4 |
| 20260905205044 | 65 | 313 | 0.9 | 4.3 | 0.00 | 0.00 | 0.00 | 84 | 1027.4 |
| 20260905204543 | 65 | 324 | 0.0 | 4.3 | 0.00 | 0.00 | 0.00 | 83 | 1027.4 |
| 20260905204046 | 65 | 192 | 0.0 | 0.0 | 0.00 | 0.00 | 0.00 | 83 | 1027.3 |
| 20260905203544 | 66 | 192 | 0.0 | 0.0 | 0.00 | 0.00 | 0.00 | 83 | 1027.3 |
| 20260905203043 | 66 | 192 | 0.0 | 0.0 | 0.00 | 0.00 | 0.00 | 82 | 1027.3 |
| 20260905202539 | 66 | 192 | 0.0 | 0.0 | 0.00 | 0.00 | 0.00 | 82 | 1027.3 |
| 20260905202039 | 66 | 192 | 0.0 | 2.6 | 0.00 | 0.00 | 0.00 | 82 | 1027.4 |
| 20260905201540 | 66 | 192 | 0.0 | 2.6 | 0.00 | 0.00 | 0.00 | 82 | 1027.3 |
| 20260905201037 | 67 | 319 | 0.0 | 0.0 | 0.00 | 0.00 | 0.00 | 81 | 1027.3 |
| 20260905200537 | 67 | 322 | 0.0 | 2.6 | 0.00 | 0.00 | 0.00 | 81 | 1027.2 |
| 20260905200051 | 67 | 323 | 0.0 | 4.3 | 0.00 | 0.00 | 0.00 | 81 | 1027.2 |
| 20260905195535 | 67 | 319 | 0.0 | 3.5 | 0.00 | 0.00 | 0.00 | 80 | 1027.1 |
| 20260905195034 | 68 | 174 | 0.0 | 0.0 | 0.00 | 0.00 | 0.00 | 79 | 1027.0 |
| 20260905194536 | 68 | 174 | 0.0 | 0.0 | 0.00 | 0.00 | 0.00 | 78 | 1026.9 |
| 20260905194033 | 68 | 174 | 0.0 | 0.0 | 0.00 | 0.00 | 0.00 | 78 | 1026.9 |
| 20260905193534 | 69 | 174 | 0.0 | 0.0 | 0.00 | 0.00 | 0.00 | 77 | 1026.8 |
| 20260905193032 | 69 | 174 | 0.0 | 0.0 | 0.00 | 0.00 | 0.00 | 77 | 1026.9 |
| 20260905192531 | 69 | 174 | 0.0 | 0.0 | 0.00 | 0.00 | 0.00 | 76 | 1026.7 |
| 20260905192032 | 69 | 174 | 0.0 | 0.0 | 0.00 | 0.00 | 0.00 | 75 | 1026.7 |
| 20260905191531 | 70 | 174 | 0.0 | 0.0 | 0.00 | 0.00 | 0.00 | 74 | 1026.7 |
| 20260905191030 | 70 | 174 | 0.0 | 0.0 | 0.00 | 0.00 | 0.00 | 73 | 1026.6 |
| 20260905190529 | 70 | 174 | 0.0 | 0.0 | 0.00 | 0.00 | 0.00 | 70 | 1026.5 |
| 20260905190031 | 71 | 174 | 0.0 | 0.0 | 0.00 | 0.00 | 0.00 | 69 | 1026.5 |
| 20260905185533 | 71 | 174 | 0.0 | 0.0 | 0.00 | 0.00 | 0.00 | 69 | 1026.4 |
| 20260905185029 | 71 | 174 | 0.0 | 0.0 | 0.00 | 0.00 | 0.00 | 69 | 1026.6 |
| 20260905184533 | 71 | 174 | 0.0 | 0.0 | 0.00 | 0.00 | 0.00 | 69 | 1026.5 |
| 20260905184028 | 72 | 174 | 0.0 | 0.0 | 0.00 | 0.00 | 0.00 | 69 | 1026.4 |
| 20260905183528 | 72 | 174 | 0.0 | 0.0 | 0.00 | 0.00 | 0.00 | 68 | 1026.3 |
| 20260905183029 | 72 | 174 | 0.0 | 0.0 | 0.00 | 0.00 | 0.00 | 68 | 1026.1 |
| 20260905182527 | 72 | 174 | 0.0 | 0.0 | 0.00 | 0.00 | 0.00 | 67 | 1026.2 |
| 20260905182028 | 73 | 174 | 0.0 | 0.0 | 0.00 | 0.00 | 0.00 | 66 | 1026.1 |
| 20260905181529 | 73 | 174 | 0.0 | 0.0 | 0.00 | 0.00 | 0.00 | 66 | 1026.1 |
| 20260905181027 | 73 | 174 | 0.0 | 0.0 | 0.00 | 0.00 | 0.00 | 65 | 1026.0 |
| 20260905180627 | 73 | 174 | 0.0 | 0.0 | 0.00 | 0.00 | 0.00 | 65 | 1026.1 |
| 20260905180029 | 73 | 174 | 0.0 | 0.0 | 0.00 | 0.00 | 0.00 | 64 | 1026.1 |
| 20260905175526 | 73 | 174 | 0.0 | 0.0 | 0.00 | 0.00 | 0.00 | 65 | 1026.0 |
| 20260905175026 | 74 | 174 | 0.0 | 0.9 | 0.00 | 0.00 | 0.00 | 64 | 1026.0 |
| 20260905174527 | 74 | 174 | 0.0 | 0.9 | 0.00 | 0.00 | 0.00 | 65 | 1026.0 |
| 20260905174026 | 74 | 134 | 0.0 | 2.6 | 0.00 | 0.00 | 0.00 | 65 | 1025.9 |
| 20260905173526 | 74 | 134 | 0.0 | 2.6 | 0.00 | 0.00 | 0.00 | 64 | 1025.8 |
| 20260905173026 | 74 | 181 | 0.0 | 0.0 | 0.00 | 0.00 | 0.00 | 65 | 1025.8 |
| 20260905172525 | 74 | 181 | 0.0 | 0.9 | 0.00 | 0.00 | 0.00 | 64 | 1025.8 |
| 20260905172025 | 74 | 181 | 0.0 | 0.9 | 0.00 | 0.00 | 0.00 | 64 | 1025.8 |
| 20260905171538 | 75 | 181 | 0.0 | 1.7 | 0.00 | 0.00 | 0.00 | 64 | 1025.9 |
| 20260905171025 | 75 | 181 | 0.0 | 2.6 | 0.00 | 0.00 | 0.00 | 64 | 1025.9 |
| 20260905170525 | 75 | 181 | 0.0 | 3.5 | 0.00 | 0.00 | 0.00 | 63 | 1025.9 |
| 20260905170030 | 75 | 180 | 0.0 | 3.5 | 0.00 | 0.00 | 0.00 | 63 | 1025.8 |